contact:dominique.lefevre@mio.osupytheas.fr, maurice.libes@osupytheas.fr, didier.mallarino@osupytheas.fr
Project:EMSO http://www.emso-fr.org/EMSO-France
Depth: 2436.0 m
Title:EMSO Ligure Ouest : Data MII capteur AQUADOPP
Date,Latitude,Longitude,X_East,Y_North,Z_Up,Amplitude_X,Amplitude_Y,Amplitude_Z,Batterie,SoundSpeed,Heading,Pitch,Roll,Pressure,TIS,Speed,Direction
, degrees North, degrees East, m.s-1, m.s-1,m.s-1, 1, 1, 1, Volt, m.s-1, degree, degree, degree, dbar, degree_C, m.s-1, degree
2023-02-01T00:04:03,42.805,6.029,0.04,-0.012,0.019,101.0,101.0,101.0,13.4,1505.2,322.4,-0.7,1.8,2471.171,13.28,0.041,106.7
2023-02-01T00:07:03,42.805,6.029,0.009,-0.034,0.018,101.0,101.0,101.0,13.4,1505.2,322.6,-0.7,1.8,2471.137,13.28,0.035,165.2
2023-02-01T00:10:03,42.805,6.029,0.009,-0.018,-0.01,100.0,102.0,101.0,13.4,1505.2,332.1,-0.8,1.8,2471.147,13.28,0.02,153.4
2023-02-01T00:13:03,42.805,6.029,0.01,0.007,0.034,102.0,100.0,103.0,13.3,1505.2,317.6,-0.8,1.8,2471.134,13.28,0.012,55.0
2023-02-01T00:16:03,42.805,6.029,0.027,-0.047,-0.022,102.0,101.0,100.0,13.4,1505.2,315.5,-0.8,1.8,2471.192,13.29,0.054,150.1
2023-02-01T00:19:03,42.805,6.029,-0.006,-0.015,0.046,101.0,101.0,101.0,13.4,1505.2,318.9,-0.8,1.8,2471.136,13.29,0.016,201.8
2023-02-01T00:22:03,42.805,6.029,0.003,-0.012,0.018,99.0,103.0,101.0,13.4,1505.2,319.1,-0.7,1.8,2471.195,13.29,0.012,166.0
2023-02-01T00:25:03,42.805,6.029,-0.01,-0.028,-0.057,101.0,101.0,101.0,13.4,1505.2,321.6,-0.7,1.8,2471.113,13.29,0.029,199.6
2023-02-01T00:28:03,42.805,6.029,0.008,0.007,0.028,101.0,101.0,102.0,13.4,1505.2,326.3,-0.8,1.8,2471.139,13.29,0.01,48.8
2023-02-01T00:31:03,42.805,6.029,0.005,-0.024,-0.01,102.0,102.0,101.0,13.4,1505.2,323.6,-0.7,1.8,2471.148,13.29,0.024,168.2
2023-02-01T00:34:03,42.805,6.029,0.028,-0.037,0.004,101.0,101.0,101.0,13.4,1505.2,339.3,-0.7,1.8,2471.13,13.29,0.046,142.9
2023-02-01T00:37:03,42.805,6.029,0.001,-0.006,0.002,102.0,101.0,101.0,13.4,1505.2,330.2,-0.7,1.8,2471.109,13.29,0.006,170.5
2023-02-01T00:40:03,42.805,6.029,0.005,-0.034,0.0,101.0,101.0,101.0,13.4,1505.2,335.2,-0.8,1.8,2471.106,13.29,0.034,171.6
2023-02-01T00:43:03,42.805,6.029,-0.002,-0.003,0.007,101.0,102.0,101.0,13.3,1505.2,316.0,-0.8,1.8,2471.143,13.29,0.003,213.7
2023-02-01T00:46:03,42.805,6.029,0.023,-0.032,-0.005,102.0,101.0,100.0,13.4,1505.2,326.5,-0.8,1.8,2471.094,13.29,0.039,144.3
2023-02-01T00:49:03,42.805,6.029,-0.01,-0.003,-0.014,102.0,101.0,100.0,13.4,1505.2,326.7,-0.8,1.8,2471.164,13.29,0.01,253.3
2023-02-01T00:52:03,42.805,6.029,-0.003,-0.022,-0.013,101.0,102.0,101.0,13.4,1505.2,316.5,-0.7,1.8,2471.127,13.29,0.022,187.8
2023-02-01T00:55:03,42.805,6.029,0.015,-0.029,-0.015,101.0,101.0,101.0,13.3,1505.2,326.3,-0.8,1.8,2471.131,13.29,0.032,152.6
2023-02-01T00:58:03,42.805,6.029,-0.002,-0.009,0.027,100.0,101.0,101.0,13.4,1505.2,320.1,-0.7,1.8,2471.161,13.29,0.009,192.5
2023-02-01T01:04:03,42.805,6.029,0.024,-0.038,0.009,102.0,103.0,103.0,13.4,1505.2,338.2,-0.8,1.8,2471.189,13.28,0.044,147.7
2023-02-01T01:07:03,42.805,6.029,0.008,-0.014,0.002,101.0,102.0,101.0,13.3,1505.2,329.1,-0.8,1.8,2471.162,13.28,0.016,150.3
2023-02-01T01:10:03,42.805,6.029,0.014,-0.036,0.014,102.0,102.0,101.0,13.4,1505.2,337.6,-0.8,1.8,2471.196,13.28,0.038,158.8
2023-02-01T01:13:03,42.805,6.029,0.023,-0.003,0.041,103.0,103.0,100.0,13.3,1505.2,317.6,-0.8,1.8,2471.19,13.29,0.023,97.4
2023-02-01T01:16:03,42.805,6.029,0.001,-0.04,-0.011,101.0,103.0,101.0,13.4,1505.2,328.0,-0.8,1.8,2471.17,13.29,0.04,178.6
2023-02-01T01:19:03,42.805,6.029,0.016,-0.056,-0.022,102.0,99.0,100.0,13.4,1505.2,327.8,-0.8,1.8,2471.148,13.29,0.058,164.1
2023-02-01T01:22:03,42.805,6.029,0.02,-0.017,0.01,102.0,101.0,101.0,13.4,1505.2,323.9,-0.8,1.8,2471.229,13.29,0.026,130.4
2023-02-01T01:25:03,42.805,6.029,0.028,-0.026,0.004,102.0,101.0,101.0,13.4,1505.2,319.2,-0.8,1.8,2471.136,13.29,0.038,132.9
2023-02-01T01:28:03,42.805,6.029,-0.03,0.021,0.048,102.0,99.0,101.0,13.3,1505.2,318.1,-0.8,1.8,2471.135,13.29,0.036,305.0
2023-02-01T01:31:03,42.805,6.029,0.011,-0.023,-0.005,102.0,100.0,102.0,13.4,1505.2,337.8,-0.7,1.9,2471.136,13.29,0.025,154.4
2023-02-01T01:34:03,42.805,6.029,0.005,-0.002,0.028,101.0,101.0,102.0,13.4,1505.2,332.1,-0.8,1.8,2471.113,13.29,0.005,111.8
2023-02-01T01:37:03,42.805,6.029,0.005,-0.029,0.021,101.0,101.0,101.0,13.4,1505.2,333.0,-0.8,1.8,2471.144,13.29,0.029,170.2
2023-02-01T01:40:03,42.805,6.029,-0.001,-0.003,0.004,103.0,101.0,101.0,13.3,1505.2,330.1,-0.7,1.8,2471.131,13.29,0.003,198.4
2023-02-01T01:43:03,42.805,6.029,0.01,-0.013,0.005,102.0,102.0,101.0,13.4,1505.2,326.7,-0.8,1.8,2471.175,13.29,0.016,142.4
2023-02-01T01:46:03,42.805,6.029,0.011,-0.011,0.033,102.0,101.0,101.0,13.3,1505.2,331.5,-0.8,1.8,2471.198,13.29,0.015,135.0
2023-02-01T01:49:03,42.805,6.029,0.009,-0.036,0.014,101.0,103.0,101.0,13.3,1505.2,321.8,-0.8,1.8,2471.173,13.29,0.037,166.0
2023-02-01T01:52:03,42.805,6.029,0.018,-0.006,0.033,103.0,102.0,101.0,13.4,1505.2,330.3,-0.8,1.8,2471.205,13.29,0.018,108.4
2023-02-01T01:55:03,42.805,6.029,0.004,0.01,0.019,101.0,102.0,101.0,13.3,1505.2,327.3,-0.8,1.8,2471.159,13.29,0.01,21.8
2023-02-01T01:58:03,42.805,6.029,0.015,-0.021,0.009,100.0,102.0,102.0,13.4,1505.2,328.2,-0.8,1.8,2471.159,13.29,0.025,144.5
2023-02-01T02:04:03,42.805,6.029,-0.017,-0.008,-0.05,101.0,102.0,101.0,13.4,1505.2,328.3,-0.8,1.8,2471.214,13.28,0.018,244.8
2023-02-01T02:07:03,42.805,6.029,0.0,-0.015,0.027,101.0,101.0,101.0,13.4,1505.2,339.2,-0.7,1.8,2471.241,13.28,0.015,180.0
2023-02-01T02:10:03,42.805,6.029,-0.018,-0.007,-0.043,102.0,102.0,101.0,13.3,1505.2,336.5,-0.8,1.8,2471.216,13.29,0.019,248.8
2023-02-01T02:13:03,42.805,6.029,0.024,-0.026,0.006,101.0,101.0,101.0,13.3,1505.2,326.3,-0.8,1.8,2471.207,13.29,0.035,137.3
2023-02-01T02:16:03,42.805,6.029,0.009,-0.02,-0.033,102.0,101.0,100.0,13.3,1505.2,320.7,-0.8,1.8,2471.199,13.29,0.021,155.8
2023-02-01T02:19:03,42.805,6.029,0.018,-0.015,-0.017,101.0,102.0,101.0,13.4,1505.2,331.6,-0.8,1.8,2471.25,13.29,0.023,129.8
2023-02-01T02:22:03,42.805,6.029,0.007,-0.011,0.008,101.0,101.0,101.0,13.4,1505.2,323.5,-0.7,1.8,2471.223,13.29,0.013,147.5
2023-02-01T02:25:03,42.805,6.029,-0.002,-0.027,-0.005,102.0,102.0,101.0,13.4,1505.2,322.7,-0.7,1.8,2471.185,13.29,0.027,184.2
2023-02-01T02:28:03,42.805,6.029,0.042,-0.027,-0.007,102.0,101.0,101.0,13.3,1505.2,327.4,-0.8,1.8,2471.185,13.29,0.049,122.7
2023-02-01T02:31:03,42.805,6.029,0.006,-0.022,-0.016,101.0,101.0,101.0,13.4,1505.2,327.0,-0.8,1.8,2471.198,13.29,0.022,164.7
2023-02-01T02:34:03,42.805,6.029,0.033,-0.022,0.014,102.0,102.0,101.0,13.3,1505.2,325.0,-0.8,1.8,2471.195,13.29,0.039,123.7
2023-02-01T02:37:03,42.805,6.029,-0.014,-0.036,-0.031,102.0,101.0,101.0,13.4,1505.2,338.5,-0.7,1.8,2471.18,13.29,0.038,201.2
2023-02-01T02:40:03,42.805,6.029,0.0,-0.014,0.005,101.0,102.0,101.0,13.3,1505.2,332.0,-0.8,1.9,2471.18,13.29,0.014,180.0
2023-02-01T02:43:03,42.805,6.029,0.009,-0.003,0.026,102.0,102.0,101.0,13.4,1505.2,323.8,-0.8,1.8,2471.214,13.29,0.009,108.4
2023-02-01T02:46:03,42.805,6.029,-0.008,-0.009,-0.025,102.0,102.0,100.0,13.3,1505.2,333.0,-0.8,1.8,2471.211,13.29,0.012,221.6
2023-02-01T02:49:03,42.805,6.029,0.0,-0.017,0.002,101.0,101.0,101.0,13.4,1505.2,321.0,-0.8,1.8,2471.203,13.29,0.017,180.0
2023-02-01T02:52:03,42.805,6.029,0.021,-0.027,0.032,101.0,102.0,100.0,13.4,1505.2,327.4,-0.8,1.8,2471.211,13.29,0.034,142.1
2023-02-01T02:55:03,42.805,6.029,0.01,-0.01,0.011,101.0,103.0,100.0,13.4,1505.2,326.3,-0.8,1.8,2471.224,13.29,0.014,135.0
2023-02-01T02:58:03,42.805,6.029,-0.001,-0.019,-0.01,101.0,100.0,102.0,13.4,1505.2,322.7,-0.8,1.8,2471.186,13.29,0.019,183.0
2023-02-01T03:04:03,42.805,6.029,0.011,-0.022,-0.008,102.0,102.0,101.0,13.4,1505.2,339.8,-0.7,1.8,2471.287,13.28,0.024,153.4
2023-02-01T03:07:03,42.805,6.029,0.011,-0.037,-0.01,101.0,102.0,101.0,13.4,1505.2,326.0,-0.8,1.8,2471.239,13.28,0.038,163.4
2023-02-01T03:10:03,42.805,6.029,-0.002,-0.023,-0.026,102.0,101.0,101.0,13.4,1505.2,337.6,-0.8,1.8,2471.26,13.28,0.023,185.0
2023-02-01T03:13:03,42.805,6.029,0.007,-0.038,0.006,100.0,101.0,101.0,13.3,1505.2,339.7,-0.8,1.8,2471.248,13.29,0.038,169.6
2023-02-01T03:16:03,42.805,6.029,-0.009,-0.024,0.002,101.0,101.0,101.0,13.3,1505.2,327.0,-0.8,1.8,2471.238,13.29,0.025,200.6
2023-02-01T03:19:03,42.805,6.029,-0.001,0.0,0.008,101.0,102.0,101.0,13.3,1505.2,318.1,-0.8,1.8,2471.205,13.29,0.001,270.0
2023-02-01T03:22:03,42.805,6.029,0.025,-0.024,0.001,102.0,102.0,100.0,13.4,1505.2,329.2,-0.7,1.8,2471.243,13.29,0.034,133.8
2023-02-01T03:25:03,42.805,6.029,0.014,-0.015,0.015,102.0,100.0,101.0,13.4,1505.2,334.2,-0.8,1.8,2471.243,13.29,0.02,137.0
2023-02-01T03:28:03,42.805,6.029,0.016,-0.027,0.004,102.0,102.0,101.0,13.4,1505.2,336.8,-0.8,1.8,2471.219,13.29,0.031,149.3
2023-02-01T03:31:03,42.805,6.029,0.034,-0.04,-0.006,101.0,102.0,100.0,13.4,1505.2,319.6,-0.8,1.8,2471.243,13.29,0.052,139.6
2023-02-01T03:34:03,42.805,6.029,-0.006,-0.009,-0.022,101.0,102.0,100.0,13.4,1505.2,324.5,-0.8,1.8,2471.263,13.29,0.01,213.7
2023-02-01T03:37:03,42.805,6.029,0.003,-0.005,0.021,102.0,101.0,101.0,13.4,1505.2,323.8,-0.7,1.8,2471.219,13.29,0.005,149.0
2023-02-01T03:40:03,42.805,6.029,0.008,-0.002,0.02,101.0,101.0,101.0,13.4,1505.2,317.6,-0.7,1.8,2471.212,13.29,0.008,104.0
2023-02-01T03:43:03,42.805,6.029,0.014,0.006,-0.019,101.0,103.0,102.0,13.4,1505.2,317.0,-0.8,1.8,2471.21,13.29,0.015,66.8
2023-02-01T03:46:03,42.805,6.029,0.003,-0.012,0.011,101.0,102.0,101.0,13.3,1505.2,332.2,-0.8,1.8,2471.246,13.29,0.012,166.0
2023-02-01T03:49:03,42.805,6.029,-0.01,-0.022,-0.041,101.0,102.0,101.0,13.4,1505.2,337.6,-0.8,1.8,2471.265,13.29,0.024,204.4
2023-02-01T03:52:03,42.805,6.029,0.022,-0.01,0.029,101.0,102.0,101.0,13.4,1505.2,320.1,-0.8,1.8,2471.245,13.29,0.024,114.4
2023-02-01T03:55:03,42.805,6.029,0.0,-0.008,0.023,101.0,102.0,101.0,13.3,1505.2,321.8,-0.7,1.8,2471.215,13.29,0.008,180.0
2023-02-01T03:58:03,42.805,6.029,0.01,-0.006,0.009,102.0,102.0,101.0,13.4,1505.2,326.7,-0.8,1.8,2471.193,13.29,0.011,121.0
2023-02-01T04:04:03,42.805,6.029,-0.007,-0.018,-0.006,102.0,101.0,100.0,13.3,1505.2,324.4,-0.7,1.8,2471.277,13.28,0.019,201.2
2023-02-01T04:07:03,42.805,6.029,-0.012,-0.012,-0.006,100.0,102.0,101.0,13.4,1505.2,331.2,-0.8,1.8,2471.27,13.28,0.016,225.0
2023-02-01T04:10:03,42.805,6.029,0.027,0.004,0.036,102.0,102.0,101.0,13.4,1505.2,320.0,-0.8,1.8,2471.292,13.29,0.027,81.6
2023-02-01T04:13:03,42.805,6.029,0.013,-0.021,0.001,103.0,102.0,100.0,13.4,1505.2,335.6,-0.8,1.8,2471.287,13.29,0.024,148.2
2023-02-01T04:16:03,42.805,6.029,-0.013,0.0,-0.008,103.0,102.0,101.0,13.4,1505.2,316.6,-0.8,1.8,2471.238,13.29,0.013,270.0
2023-02-01T04:19:03,42.805,6.029,0.0,-0.015,-0.013,101.0,102.0,100.0,13.4,1505.2,335.8,-0.7,1.8,2471.261,13.29,0.015,180.0
2023-02-01T04:22:03,42.805,6.029,0.007,-0.027,-0.037,100.0,103.0,101.0,13.4,1505.2,330.1,-0.8,1.8,2471.252,13.29,0.027,165.5
2023-02-01T04:25:03,42.805,6.029,-0.012,0.008,0.016,101.0,100.0,102.0,13.4,1505.2,332.0,-0.7,1.8,2471.235,13.29,0.014,303.7
2023-02-01T04:28:03,42.805,6.029,-0.001,-0.024,-0.016,103.0,102.0,100.0,13.4,1505.2,321.1,-0.7,1.8,2471.254,13.29,0.024,182.4
2023-02-01T04:31:03,42.805,6.029,-0.003,0.009,0.009,101.0,103.0,101.0,13.4,1505.2,317.1,-0.8,1.8,2471.28,13.29,0.009,341.6
2023-02-01T04:34:03,42.805,6.029,-0.001,-0.01,0.011,100.0,103.0,102.0,13.4,1505.2,320.1,-0.8,1.8,2471.284,13.29,0.01,185.7
2023-02-01T04:37:03,42.805,6.029,-0.019,-0.018,0.005,101.0,102.0,102.0,13.4,1505.2,326.5,-0.8,1.8,2471.255,13.29,0.026,226.5
2023-02-01T04:40:03,42.805,6.029,-0.001,-0.038,-0.035,100.0,103.0,101.0,13.3,1505.2,329.6,-0.8,1.8,2471.276,13.29,0.038,181.5
2023-02-01T04:43:03,42.805,6.029,0.0,-0.013,-0.004,102.0,100.0,101.0,13.4,1505.2,322.9,-0.8,1.8,2471.241,13.29,0.013,180.0
2023-02-01T04:46:03,42.805,6.029,0.022,-0.003,0.037,101.0,102.0,101.0,13.3,1505.2,327.8,-0.8,1.8,2471.217,13.29,0.022,97.8
2023-02-01T04:49:03,42.805,6.029,0.013,-0.019,0.024,102.0,102.0,103.0,13.3,1505.2,323.7,-0.8,1.8,2471.22,13.29,0.023,145.6
2023-02-01T04:52:03,42.805,6.029,0.017,-0.008,-0.006,101.0,102.0,101.0,13.4,1505.2,326.3,-0.8,1.8,2471.211,13.29,0.018,115.2
2023-02-01T04:55:03,42.805,6.029,-0.004,-0.01,-0.002,102.0,103.0,101.0,13.4,1505.2,333.0,-0.7,1.8,2471.305,13.29,0.01,201.8
2023-02-01T04:58:03,42.805,6.029,-0.007,-0.004,-0.002,102.0,101.0,100.0,13.4,1505.2,329.1,-0.8,1.8,2471.272,13.29,0.008,240.3
2023-02-01T05:04:03,42.805,6.029,-0.013,-0.019,-0.016,101.0,102.0,101.0,13.3,1505.2,321.0,-0.8,1.8,2471.316,13.28,0.023,214.4
2023-02-01T05:07:03,42.805,6.029,-0.006,-0.018,-0.024,102.0,103.0,100.0,13.4,1505.2,325.5,-0.8,1.8,2471.309,13.29,0.018,198.4
2023-02-01T05:10:03,42.805,6.029,0.021,-0.019,0.007,101.0,102.0,100.0,13.4,1505.2,333.0,-0.8,1.8,2471.316,13.29,0.028,132.1
2023-02-01T05:13:03,42.805,6.029,-0.003,-0.004,0.002,100.0,102.0,100.0,13.3,1505.2,335.1,-0.8,1.8,2471.296,13.29,0.005,216.9
2023-02-01T05:16:03,42.805,6.029,0.033,-0.005,0.031,102.0,101.0,102.0,13.4,1505.2,329.2,-0.8,1.8,2471.265,13.29,0.033,98.6
2023-02-01T05:19:03,42.805,6.029,0.007,0.009,0.046,101.0,102.0,101.0,13.4,1505.2,320.5,-0.7,1.8,2471.259,13.29,0.011,37.9
2023-02-01T05:22:03,42.805,6.029,0.007,-0.003,0.036,101.0,101.0,101.0,13.3,1505.2,321.8,-0.8,1.8,2471.277,13.29,0.007,113.2
2023-02-01T05:25:03,42.805,6.029,0.005,-0.008,0.009,100.0,101.0,102.0,13.4,1505.2,331.8,-0.8,1.8,2471.273,13.29,0.009,148.0
2023-02-01T05:28:03,42.805,6.029,0.001,-0.025,-0.019,101.0,103.0,101.0,13.4,1505.2,328.6,-0.7,1.8,2471.263,13.29,0.025,177.7
2023-02-01T05:31:03,42.805,6.029,0.002,0.001,0.0,102.0,103.0,100.0,13.4,1505.2,325.5,-0.7,1.9,2471.276,13.29,0.002,63.4
2023-02-01T05:34:03,42.805,6.029,-0.014,-0.037,-0.042,102.0,101.0,102.0,13.3,1505.2,321.4,-0.8,1.8,2471.257,13.29,0.039,200.7
2023-02-01T05:37:03,42.805,6.029,-0.006,0.0,0.029,101.0,101.0,101.0,13.4,1505.2,323.9,-0.8,1.8,2471.228,13.29,0.006,270.0
2023-02-01T05:40:03,42.805,6.029,-0.023,0.0,-0.006,102.0,103.0,100.0,13.3,1505.2,325.8,-0.8,1.8,2471.246,13.29,0.023,270.0
2023-02-01T05:43:03,42.805,6.029,-0.007,-0.014,-0.005,102.0,102.0,101.0,13.3,1505.2,326.7,-0.7,1.8,2471.266,13.29,0.015,206.6
2023-02-01T05:46:03,42.805,6.029,-0.003,-0.007,-0.004,100.0,101.0,101.0,13.4,1505.2,331.8,-0.8,1.8,2471.231,13.29,0.007,203.2
2023-02-01T05:49:03,42.805,6.029,-0.001,0.0,0.01,101.0,101.0,101.0,13.4,1505.2,327.6,-0.8,1.9,2471.225,13.29,0.001,270.0
2023-02-01T05:52:03,42.805,6.029,0.007,-0.013,0.022,102.0,101.0,101.0,13.4,1505.2,328.0,-0.8,1.8,2471.248,13.29,0.014,151.7
2023-02-01T05:55:03,42.805,6.029,-0.019,-0.002,-0.027,101.0,103.0,102.0,13.4,1505.2,336.3,-0.7,1.8,2471.251,13.29,0.019,264.0
2023-02-01T05:58:03,42.805,6.029,-0.004,0.006,-0.016,101.0,102.0,101.0,13.4,1505.2,335.4,-0.7,1.8,2471.242,13.29,0.007,326.3
2023-02-01T06:04:03,42.805,6.029,0.003,-0.016,-0.016,102.0,101.0,101.0,13.4,1505.2,332.1,-0.7,1.8,2471.314,13.29,0.016,169.4
2023-02-01T06:07:03,42.805,6.029,-0.005,-0.006,-0.003,103.0,102.0,101.0,13.4,1505.2,321.6,-0.7,1.8,2471.307,13.29,0.007,219.8
2023-02-01T06:10:03,42.805,6.029,0.0,0.004,0.018,102.0,101.0,101.0,13.3,1505.2,321.1,-0.8,1.8,2471.319,13.29,0.004,0.0
2023-02-01T06:13:03,42.805,6.029,-0.002,0.0,-0.018,104.0,102.0,101.0,13.4,1505.2,331.7,-0.8,1.8,2471.296,13.29,0.002,270.0
2023-02-01T06:16:03,42.805,6.029,0.0,0.003,0.017,102.0,102.0,101.0,13.4,1505.2,329.1,-0.7,1.8,2471.269,13.29,0.003,0.0
2023-02-01T06:19:03,42.805,6.029,-0.013,-0.011,-0.03,101.0,101.0,101.0,13.4,1505.2,333.0,-0.8,1.8,2471.275,13.29,0.017,229.8
2023-02-01T06:22:03,42.805,6.029,-0.017,-0.01,-0.025,101.0,102.0,101.0,13.4,1505.2,325.3,-0.7,1.8,2471.287,13.29,0.019,239.5
2023-02-01T06:25:03,42.805,6.029,0.032,-0.002,0.027,101.0,101.0,101.0,13.3,1505.2,330.3,-0.8,1.8,2471.246,13.29,0.032,93.6
2023-02-01T06:28:03,42.805,6.029,0.008,-0.019,0.001,100.0,100.0,101.0,13.3,1505.2,328.8,-0.8,1.8,2471.283,13.29,0.02,157.2
2023-02-01T06:31:03,42.805,6.029,0.007,0.005,0.008,100.0,103.0,101.0,13.3,1505.2,331.9,-0.8,1.8,2471.258,13.29,0.008,54.5
2023-02-01T06:34:03,42.805,6.029,0.016,-0.015,0.005,101.0,103.0,102.0,13.4,1505.2,321.8,-0.8,1.8,2471.271,13.29,0.021,133.1
2023-02-01T06:37:03,42.805,6.029,-0.008,-0.009,-0.017,101.0,102.0,103.0,13.4,1505.2,333.8,-0.8,1.8,2471.229,13.29,0.012,221.6
2023-02-01T06:40:03,42.805,6.029,0.007,-0.038,-0.038,102.0,101.0,101.0,13.4,1505.2,330.9,-0.8,1.8,2471.225,13.29,0.038,169.6
2023-02-01T06:43:03,42.805,6.029,0.011,-0.019,0.005,101.0,102.0,101.0,13.4,1505.2,324.3,-0.7,1.8,2471.281,13.29,0.021,149.9
2023-02-01T06:46:03,42.805,6.029,0.006,-0.007,0.028,101.0,102.0,101.0,13.4,1505.2,321.7,-0.8,1.8,2471.294,13.29,0.009,139.4
2023-02-01T06:49:03,42.805,6.029,-0.022,0.009,-0.002,101.0,102.0,101.0,13.4,1505.2,316.0,-0.8,1.8,2471.251,13.29,0.023,292.2
2023-02-01T06:52:03,42.805,6.029,-0.006,-0.021,-0.024,102.0,101.0,101.0,13.3,1505.2,333.4,-0.7,1.8,2471.229,13.29,0.021,195.9
2023-02-01T06:55:03,42.805,6.029,-0.001,-0.009,0.0,101.0,102.0,101.0,13.4,1505.2,325.5,-0.8,1.8,2471.261,13.29,0.009,186.3
2023-02-01T06:58:03,42.805,6.029,0.022,-0.04,-0.023,102.0,101.0,101.0,13.4,1505.2,326.5,-0.7,1.8,2471.239,13.29,0.045,151.2
2023-02-01T07:04:03,42.805,6.029,0.001,0.003,0.031,102.0,101.0,100.0,13.3,1505.2,317.6,-0.8,1.8,2471.27,13.29,0.003,18.4
2023-02-01T07:07:03,42.805,6.029,-0.002,-0.017,-0.008,101.0,101.0,101.0,13.3,1505.2,330.8,-0.7,1.8,2471.267,13.29,0.017,186.7
2023-02-01T07:10:03,42.805,6.029,-0.011,-0.007,0.025,102.0,101.0,101.0,13.3,1505.2,333.0,-0.8,1.8,2471.278,13.29,0.013,237.5
2023-02-01T07:13:03,42.805,6.029,-0.019,0.006,-0.005,102.0,101.0,101.0,13.4,1505.2,331.7,-0.8,1.8,2471.276,13.29,0.019,287.5
2023-02-01T07:16:03,42.805,6.029,-0.013,0.0,0.025,101.0,103.0,100.0,13.4,1505.2,323.7,-0.7,1.8,2471.301,13.29,0.013,270.0
2023-02-01T07:19:03,42.805,6.029,-0.004,-0.017,-0.007,101.0,101.0,100.0,13.3,1505.2,321.4,-0.8,1.8,2471.29,13.29,0.017,193.2
2023-02-01T07:22:03,42.805,6.029,0.001,0.01,0.024,101.0,101.0,101.0,13.4,1505.2,325.5,-0.8,1.8,2471.29,13.29,0.01,5.7
2023-02-01T07:25:03,42.805,6.029,-0.039,-0.002,0.004,102.0,103.0,99.0,13.4,1505.2,336.4,-0.7,1.8,2471.314,13.29,0.039,267.1
2023-02-01T07:28:03,42.805,6.029,-0.027,0.0,-0.011,100.0,102.0,101.0,13.3,1505.2,340.1,-0.8,1.8,2471.231,13.29,0.026,270.0
2023-02-01T07:31:03,42.805,6.029,0.012,0.003,-0.003,102.0,101.0,101.0,13.3,1505.2,321.2,-0.8,1.8,2471.267,13.29,0.012,76.0
2023-02-01T07:34:03,42.805,6.029,0.002,-0.012,0.006,101.0,101.0,100.0,13.4,1505.2,315.5,-0.8,1.8,2471.25,13.29,0.012,170.5
2023-02-01T07:37:03,42.805,6.029,-0.016,-0.016,-0.039,100.0,102.0,101.0,13.4,1505.2,318.6,-0.8,1.8,2471.263,13.29,0.022,225.0
2023-02-01T07:40:03,42.805,6.029,0.009,0.0,-0.027,102.0,100.0,102.0,13.4,1505.2,320.7,-0.8,1.8,2471.234,13.29,0.009,90.0
2023-02-01T07:43:03,42.805,6.029,-0.005,0.008,0.035,99.0,104.0,101.0,13.3,1505.2,323.4,-0.7,1.8,2471.23,13.29,0.009,328.0
2023-02-01T07:46:03,42.805,6.029,-0.022,-0.004,-0.008,102.0,101.0,100.0,13.3,1505.2,327.0,-0.7,1.8,2471.262,13.29,0.022,259.7
2023-02-01T07:49:03,42.805,6.029,0.026,-0.014,-0.007,102.0,102.0,101.0,13.4,1505.2,320.4,-0.7,1.8,2471.215,13.29,0.029,118.3
2023-02-01T07:52:03,42.805,6.029,-0.001,0.011,0.02,102.0,102.0,101.0,13.3,1505.2,333.0,-0.8,1.9,2471.251,13.29,0.011,354.8
2023-02-01T07:55:03,42.805,6.029,0.003,-0.014,-0.023,101.0,102.0,102.0,13.4,1505.2,319.0,-0.7,1.8,2471.25,13.29,0.014,167.9
2023-02-01T07:58:03,42.805,6.029,0.015,-0.017,-0.028,102.0,102.0,101.0,13.4,1505.2,333.0,-0.8,1.8,2471.179,13.29,0.022,138.6
2023-02-01T08:04:03,42.805,6.029,-0.03,0.003,-0.028,100.0,104.0,101.0,13.3,1505.2,324.3,-0.8,1.8,2471.268,13.29,0.03,275.7
2023-02-01T08:07:03,42.805,6.029,-0.022,-0.018,-0.033,102.0,102.0,101.0,13.3,1505.2,324.5,-0.8,1.8,2471.279,13.29,0.028,230.7
2023-02-01T08:10:03,42.805,6.029,0.003,-0.016,0.003,104.0,101.0,101.0,13.3,1505.2,326.3,-0.8,1.8,2471.283,13.29,0.016,169.4
2023-02-01T08:13:03,42.805,6.029,0.002,0.0,-0.001,100.0,104.0,100.0,13.4,1505.2,321.0,-0.8,1.8,2471.258,13.29,0.002,90.0
2023-02-01T08:16:03,42.805,6.029,0.004,-0.012,-0.01,101.0,100.0,102.0,13.3,1505.2,321.2,-0.8,1.8,2471.26,13.29,0.012,161.6
2023-02-01T08:19:03,42.805,6.029,-0.003,0.0,0.006,101.0,103.0,102.0,13.3,1505.2,335.6,-0.7,1.8,2471.249,13.29,0.003,270.0
2023-02-01T08:22:03,42.805,6.029,-0.001,-0.012,0.011,101.0,103.0,100.0,13.4,1505.2,322.2,-0.8,1.8,2471.263,13.29,0.012,184.8
2023-02-01T08:25:03,42.805,6.029,-0.013,0.005,0.019,103.0,100.0,100.0,13.3,1505.2,338.9,-0.8,1.8,2471.22,13.29,0.013,291.0
2023-02-01T08:28:03,42.805,6.029,-0.007,-0.013,-0.013,101.0,102.0,101.0,13.4,1505.2,336.0,-0.8,1.8,2471.245,13.29,0.014,208.3
2023-02-01T08:31:03,42.805,6.029,-0.003,0.006,-0.038,101.0,102.0,103.0,13.4,1505.2,335.4,-0.8,1.8,2471.258,13.29,0.006,333.4
2023-02-01T08:34:03,42.805,6.029,0.006,-0.003,-0.014,101.0,102.0,100.0,13.3,1505.2,316.6,-0.8,1.8,2471.218,13.29,0.006,116.6
2023-02-01T08:37:03,42.805,6.029,0.014,-0.027,-0.012,101.0,102.0,100.0,13.3,1505.2,324.3,-0.8,1.8,2471.234,13.29,0.03,152.6
2023-02-01T08:40:03,42.805,6.029,0.004,0.012,0.029,102.0,102.0,101.0,13.4,1505.2,336.8,-0.8,1.8,2471.262,13.29,0.012,18.4
2023-02-01T08:43:03,42.805,6.029,-0.025,0.024,0.045,101.0,103.0,102.0,13.4,1505.2,318.3,-0.8,1.8,2471.225,13.29,0.034,313.8
2023-02-01T08:46:03,42.805,6.029,0.001,0.01,0.014,102.0,102.0,101.0,13.4,1505.2,326.3,-0.8,1.8,2471.228,13.29,0.01,5.7
2023-02-01T08:49:03,42.805,6.029,-0.004,-0.005,-0.01,101.0,102.0,103.0,13.4,1505.2,325.4,-0.7,1.8,2471.276,13.29,0.006,218.7
2023-02-01T08:52:03,42.805,6.029,0.0,0.007,-0.005,101.0,101.0,100.0,13.4,1505.2,337.8,-0.7,1.8,2471.202,13.29,0.007,0.0
2023-02-01T08:55:03,42.805,6.029,-0.04,0.006,0.013,101.0,102.0,100.0,13.3,1505.2,328.4,-0.8,1.8,2471.238,13.3,0.04,278.5
2023-02-01T08:58:03,42.805,6.029,-0.002,-0.013,-0.007,101.0,101.0,101.0,13.4,1505.2,322.9,-0.8,1.8,2471.229,13.3,0.013,188.7
2023-02-01T09:04:03,42.805,6.029,-0.008,-0.008,-0.001,102.0,100.0,102.0,13.4,1505.2,332.5,-0.8,1.8,2471.248,13.3,0.011,225.0
2023-02-01T09:07:03,42.805,6.029,-0.003,-0.007,0.017,101.0,103.0,101.0,13.3,1505.2,318.4,-0.8,1.8,2471.265,13.3,0.007,203.2
2023-02-01T09:10:03,42.805,6.029,-0.015,0.004,-0.007,102.0,103.0,101.0,13.3,1505.2,330.1,-0.8,1.8,2471.292,13.3,0.015,284.9
2023-02-01T09:13:03,42.805,6.029,-0.03,-0.001,-0.034,101.0,101.0,101.0,13.3,1505.2,323.8,-0.8,1.8,2471.24,13.3,0.03,268.1
2023-02-01T09:16:03,42.805,6.029,-0.021,0.002,0.016,100.0,103.0,100.0,13.4,1505.2,320.9,-0.7,1.8,2471.22,13.3,0.021,275.4
2023-02-01T09:19:03,42.805,6.029,-0.042,-0.001,-0.037,101.0,101.0,101.0,13.4,1505.2,324.2,-0.8,1.8,2471.184,13.3,0.042,268.6
2023-02-01T09:22:03,42.805,6.029,-0.026,0.006,-0.014,100.0,101.0,101.0,13.4,1505.2,329.1,-0.8,1.8,2471.215,13.3,0.026,283.0
2023-02-01T09:25:03,42.805,6.029,-0.009,-0.007,-0.009,100.0,101.0,101.0,13.4,1505.2,322.5,-0.8,1.8,2471.254,13.3,0.011,232.1
2023-02-01T09:28:03,42.805,6.029,-0.035,0.017,0.018,100.0,102.0,101.0,13.4,1505.2,327.3,-0.7,1.8,2471.222,13.3,0.038,295.9
2023-02-01T09:31:03,42.805,6.029,0.004,0.006,0.007,103.0,101.0,100.0,13.4,1505.2,337.6,-0.8,1.8,2471.21,13.3,0.007,33.7
2023-02-01T09:34:03,42.805,6.029,-0.026,-0.009,-0.028,101.0,100.0,101.0,13.4,1505.2,316.0,-0.7,1.8,2471.215,13.3,0.027,250.9
2023-02-01T09:37:03,42.805,6.029,-0.031,-0.005,0.027,102.0,101.0,100.0,13.4,1505.2,320.4,-0.7,1.9,2471.19,13.3,0.031,260.8
2023-02-01T09:40:03,42.805,6.029,-0.022,0.0,0.003,101.0,102.0,101.0,13.3,1505.2,331.7,-0.8,1.8,2471.206,13.3,0.022,270.0
2023-02-01T09:43:03,42.805,6.029,0.0,-0.015,-0.017,103.0,102.0,99.0,13.4,1505.2,324.8,-0.8,1.8,2471.204,13.3,0.015,180.0
2023-02-01T09:46:03,42.805,6.029,-0.023,-0.012,-0.037,102.0,101.0,102.0,13.4,1505.2,326.3,-0.8,1.8,2471.246,13.3,0.025,242.4
2023-02-01T09:49:03,42.805,6.029,-0.013,-0.038,-0.024,101.0,101.0,101.0,13.4,1505.2,323.4,-0.8,1.8,2471.212,13.3,0.04,198.9
2023-02-01T09:52:03,42.805,6.029,-0.016,0.01,-0.026,101.0,101.0,102.0,13.4,1505.2,318.1,-0.7,1.8,2471.241,13.3,0.018,302.0
2023-02-01T09:55:03,42.805,6.029,0.002,-0.007,-0.003,103.0,102.0,101.0,13.4,1505.2,327.4,-0.8,1.8,2471.207,13.3,0.007,164.1